Jackson Hawkins Field, MS

10:18 PM CDT on May 27, 2018 (GMT -0500)
Hawkins

Weather History for KHKS - July, 2013

Change the Weather History Date:

Saturday, July 27, 2013

  Actual Average (KJAN) Record (KJAN)
Temperature  
Mean Temperature 74 °F -  
Max Temperature 80 °F 92 °F 103 °F (1952)
Min Temperature 69 °F 72 °F 58 °F (1911)
Cooling Degree Days 9    
Growing Degree Days 24 (Base 50)    
Moisture  
Dew Point 71 °F    
Average Humidity 90    
Maximum Humidity 100    
Minimum Humidity 64    
Precipitation  
Precipitation 1.55 in - - ()
Sea Level Pressure  
Sea Level Pressure 29.93 in    
Wind  
Wind Speed 4 mph (ENE)    
Max Wind Speed 14 mph    
Max Gust Speed 22 mph    
Visibility 5 miles    
Events Rain , Thunderstorm    
Averages and records for this station are not official NWS values.
T = Trace of Precipitation, MM = Missing Value Source: NWS Daily Summary

Daily Weather History Graph

Daily Weather History Graph

Search for Another Location

Airport or City:

Astronomy

Jul. 27, 2013 Rise Set
Actual Time 6:12 AM CDT 8:01 PM CDT
Civil Twilight 5:45 AM CDT 8:28 PM CDT
Nautical Twilight 5:12 AM CDT 9:01 PM CDT
Astronomical Twilight 4:38 AM CDT 9:36 PM CDT
Moon 11:14 PM CDT (7/27) 11:29 AM CDT (7/27)
Length of Visible Light 14h 43m
Length of Day
13h 49m
Waning Gibbous, 70% of the Moon is Illuminated
Jul 27
Waning Gibbous
Jul 29
Last Quarter
Aug 6
New
Aug 14
First Quarter
Aug 20
Full

Hourly Weather History & Observations

Time (CDT) Temp. Dew Point Humidity Pressure Visibility Wind Dir Wind Speed Gust Speed Precip Events Conditions
12:46 AM 78.8 °F 66.2 °F 65% 29.97 in 10.0 mi East 3.5 mph - N/A Thunderstorm Thunderstorm
12:53 AM 78.1 °F 66.9 °F 68% 29.95 in 10.0 mi East 4.6 mph - N/A Thunderstorm Thunderstorm
1:53 AM 79.0 °F 66.0 °F 64% 29.93 in 10.0 mi East 5.8 mph - N/A Thunderstorm Thunderstorm
2:39 AM 73.4 °F 68.0 °F 83% 29.95 in 7.0 mi ENE 5.8 mph - 0.05 in Rain Light Rain
2:53 AM 73.0 °F 69.1 °F 87% 29.93 in 9.0 mi ENE 3.5 mph - 0.06 in Rain Light Rain
3:13 AM 73.4 °F 69.8 °F 88% 29.95 in 7.0 mi Calm Calm - 0.02 in Rain , Thunderstorm Rain
3:28 AM 73.4 °F 69.8 °F 88% 29.95 in 4.0 mi Calm Calm - 0.06 in Rain Rain
3:38 AM 73.4 °F 69.8 °F 88% 29.98 in 1.8 mi West 13.8 mph 21.9 mph 0.20 in Rain Heavy Rain
3:53 AM 71.1 °F 69.1 °F 93% 29.95 in 2.0 mi West 4.6 mph - 0.32 in Rain Heavy Rain
4:13 AM 71.6 °F 68.0 °F 88% 29.97 in 4.0 mi NNE 4.6 mph - 0.08 in Rain Rain
4:32 AM 71.6 °F 69.8 °F 94% 29.97 in 2.5 mi North 3.5 mph - 0.16 in Rain Heavy Rain
4:39 AM 69.8 °F 68.0 °F 94% 29.98 in 1.0 mi West 5.8 mph - 0.30 in Rain Heavy Rain
4:53 AM 70.0 °F 68.0 °F 93% 29.95 in 1.0 mi Variable 3.5 mph - 0.71 in Rain Heavy Rain
5:01 AM 69.8 °F 68.0 °F 94% 29.97 in 3.0 mi ENE 8.1 mph - 0.02 in Rain Rain
5:12 AM 69.8 °F 69.8 °F 100% 29.96 in 7.0 mi Calm Calm - 0.03 in Rain Light Rain
5:53 AM 71.1 °F 69.1 °F 93% 29.95 in 7.0 mi East 4.6 mph - 0.04 in Rain Light Rain
6:19 AM 71.6 °F 69.8 °F 94% 29.97 in 8.0 mi East 4.6 mph - 0.00 in Rain Light Rain
6:53 AM 71.1 °F 70.0 °F 96% 29.94 in 5.0 mi East 4.6 mph - 0.00 in   Overcast
7:39 AM 71.6 °F 69.8 °F 94% 29.96 in 6.0 mi ESE 4.6 mph - 0.01 in   Mostly Cloudy
7:51 AM 71.6 °F 69.8 °F 94% 29.96 in 1.8 mi SE 4.6 mph - 0.05 in Rain Rain
7:53 AM 71.1 °F 70.0 °F 96% 29.93 in 1.5 mi ESE 5.8 mph - 0.06 in Rain Heavy Rain
8:04 AM 71.6 °F 69.8 °F 94% 29.95 in 3.0 mi ESE 8.1 mph - 0.01 in Rain Light Rain
8:53 AM 72.0 °F 71.1 °F 97% 29.94 in 4.0 mi South 3.5 mph - 0.01 in Rain Light Rain
9:02 AM 71.6 °F 71.6 °F 100% 29.96 in 2.0 mi Calm Calm - 0.02 in Rain Light Rain
9:11 AM 71.6 °F 71.6 °F 100% 29.96 in 5.0 mi ESE 3.5 mph - 0.02 in Rain Light Rain
9:46 AM 73.4 °F 71.6 °F 94% 29.95 in 6.0 mi ESE 5.8 mph - 0.02 in   Overcast
9:53 AM 73.9 °F 72.0 °F 93% 29.93 in 7.0 mi SE 3.5 mph - 0.02 in   Overcast
10:00 AM 73.4 °F 71.6 °F 94% 29.95 in 7.0 mi ESE 4.6 mph - N/A   Overcast
10:28 AM 75.2 °F 71.6 °F 89% 29.95 in 9.0 mi ESE 3.5 mph - N/A   Overcast
10:53 AM 75.9 °F 72.0 °F 87% 29.92 in 10.0 mi Calm Calm - N/A   Overcast
11:02 AM 75.2 °F 71.6 °F 89% 29.95 in 10.0 mi ESE 4.6 mph - N/A   Overcast
11:12 AM 75.2 °F 71.6 °F 89% 29.95 in 10.0 mi ESE 4.6 mph - N/A   Overcast
11:53 AM 77.0 °F 72.0 °F 84% 29.92 in 6.0 mi ESE 3.5 mph - 0.00 in Rain Light Rain
12:53 PM 79.0 °F 71.1 °F 77% 29.90 in 10.0 mi East 5.8 mph - 0.00 in   Overcast
1:27 PM 77.0 °F 73.4 °F 89% 29.92 in 1.8 mi ENE 4.6 mph - 0.06 in Rain Heavy Rain
1:53 PM 77.0 °F 73.9 °F 90% 29.89 in 1.2 mi NE 6.9 mph - 0.17 in Rain Rain
2:06 PM 77.0 °F 73.4 °F 89% 29.91 in 2.5 mi NE 4.6 mph - 0.01 in Rain Light Rain
2:14 PM 77.0 °F 73.4 °F 89% 29.91 in 4.0 mi NNE 4.6 mph - 0.01 in Rain Light Rain
2:43 PM 77.0 °F 73.4 °F 89% 29.90 in 2.5 mi North 5.8 mph - 0.03 in Rain Light Rain
2:48 PM 77.0 °F 73.4 °F 89% 29.90 in 1.8 mi North 3.5 mph - 0.03 in Rain Rain
2:53 PM 75.9 °F 73.0 °F 91% 29.88 in 1.5 mi NNE 4.6 mph - 0.04 in Rain Light Rain
3:02 PM 77.0 °F 73.4 °F 89% 29.90 in 2.5 mi NNE 3.5 mph - 0.01 in Rain Light Rain
3:10 PM 77.0 °F 73.4 °F 89% 29.90 in 1.8 mi North 3.5 mph - 0.02 in Rain Light Rain
3:28 PM 77.0 °F 73.4 °F 89% 29.90 in 2.0 mi North 4.6 mph - 0.03 in Rain Light Rain
3:30 PM 77.0 °F 73.4 °F 89% 29.90 in 1.8 mi North 4.6 mph - 0.03 in Rain Light Rain
3:40 PM 75.2 °F 73.4 °F 94% 29.90 in 1.5 mi NNE 4.6 mph - 0.05 in Rain Rain
3:53 PM 75.9 °F 73.0 °F 91% 29.88 in 1.0 mi Variable 3.5 mph - 0.10 in Rain Rain
4:05 PM 75.2 °F 73.4 °F 94% 29.90 in 2.0 mi NE 3.5 mph - 0.02 in Rain Light Rain
4:21 PM 75.2 °F 73.4 °F 94% 29.90 in 2.5 mi NNE 4.6 mph - 0.02 in Rain Light Rain
4:26 PM 75.2 °F 73.4 °F 94% 29.90 in 3.0 mi North 5.8 mph - 0.02 in Rain Light Rain
4:53 PM 77.0 °F 73.9 °F 90% 29.87 in 10.0 mi North 4.6 mph - 0.02 in   Overcast
5:53 PM 79.0 °F 73.0 °F 82% 29.88 in 10.0 mi NE 3.5 mph - N/A   Overcast
6:53 PM 79.0 °F 72.0 °F 79% 29.88 in 10.0 mi Variable 3.5 mph - N/A   Mostly Cloudy
7:53 PM 77.0 °F 72.0 °F 84% 29.89 in 10.0 mi Calm Calm - N/A   Clear
8:53 PM 75.0 °F 71.1 °F 87% 29.90 in 10.0 mi Calm Calm - N/A   Clear
9:53 PM 73.9 °F 71.1 °F 91% 29.91 in 10.0 mi NNE 3.5 mph - N/A   Clear
10:53 PM 73.9 °F 71.1 °F 91% 29.91 in 10.0 mi Calm Calm - N/A   Clear
11:53 PM 72.0 °F 71.1 °F 97% 29.92 in 9.0 mi Calm Calm - N/A   Mostly Cloudy